Location: Crescent
(42.8242°N, 73.7329°W)
Time: 12:54:14
(UTC+00:00)

Explorer 7 - Pass Details

Date: 21 February 2026
Orbit: 430 x 540 km, 50.2° (Epoch: 17 March)

Event Time Altitude Azimuth Distance (km) Brightness Sun altitude
Rises 23:13:21 0° 301° (WNW) 2,497 11.1 -7.9°
Reaches altitude 10° 23:15:31 10° 307° (NW) 1,639 10.0 -8.2°
Maximum altitude 23:19:07 49° 23° (NNE) 635 6.9 -8.9°
Enters shadow 23:22:28 12° 98° (E) 1,547 8.5 -9.5°
Drops below altitude 10° 23:22:52 10° 100° (E) 1,701 - -9.6°
Sets 23:25:09 0° 106° (ESE) 2,604 - -10.0°
